Location: ????????
(48.4751°N, 37.6926°E)
Time: 20:39:22
(UTC+00:00)

ATLAS 5 CENTAUR R/B - Pass Details

Date: 20 January 2021
Orbit: 511 x 1147 km, 63.3° (Epoch: 16 February)

Event Time Altitude Azimuth Distance (km) Brightness Sun altitude
Rises 16:59:54 0° 273° (W) 2,753 6.2 -27.9°
Reaches altitude 10° 17:02:31 10° 292° (WNW) 1,935 4.9 -28.3°
Maximum altitude 17:05:44 20° 340° (NNW) 1,506 3.7 -28.8°
Enters shadow 17:05:58 20° 344° (NNW) 1,517 3.7 -28.9°
